Regional Weather Roundup
Issued by NWS

Home | Current Version | Previous Version | Text Only | Print | Product List | Glossary On
Versions: 1 2 3 4 5 6 7 8 9 10 11 12 13 14 15 16 17 18 19 20 21 22 23 24 25 26 27 28 29 30 31 32 33 34 35 36 37 38 39 40 41 42 43 44 45 46 47 48 49 50
000
ASUS43 KMPX 161110
RWRMN
WEATHER ROUNDUP FOR MINNESOTA
NATIONAL WEATHER SERVICE TWIN CITIES/CHANHASSEN MN
600 AM CDT WED APR 16 2014


NOTE: "FAIR" INDICATES FEW OR NO CLOUDS BELOW 12,000 FEET WITH NO
SIGNIFICANT WEATHER AND/OR OBSTRUCTIONS TO VISIBILITY. N/A MEANS
CURRENT SKY AND/OR WEATHER CONDITIONS ARE NOT AVAILABLE.

MNZ060>063-068>070-161200-
   Twin Cities Metro

CITY           SKY/WX    TMP DP  RH WIND       PRES   REMARKS
TWIN CITIES    CLOUDY    33  16  49 E21G29    29.96F WCI  21
ST PAUL        CLOUDY    32  19  58 E10       30.00F WCI  24
CRYSTAL        CLOUDY    32  20  61 E15G21    29.97F WCI  22
BLAINE         CLOUDY    32  25  74 E15G22    29.98F WCI  22
EDEN PRAIRIE   CLOUDY    35  17  47 E20G26    29.94S WCI  24
LAKEVILLE      CLOUDY    30  19  64 E18G29    29.94F WCI  18
SOUTH ST PAUL  CLOUDY    37  17  44 E13G20    29.98F
LAKE ELMO      CLOUDY    32  23  69 E14G22    30.01F WCI  22
$$
MNZ001>005-007-008-013>017-022>024-027-028-161200-
   Northwest Minnesota

CITY           SKY/WX    TMP DP  RH WIND       PRES   REMARKS
BEMIDJI        CLOUDY    25   7  45 E9        30.03R WCI  16
HALLOCK        CLOUDY    25  10  54 E13       30.10R WCI  13
ROSEAU         CLEAR     21  10  63 E10       30.12S WCI  10
WARROAD        FAIR      16   9  73 NE8       30.13S WCI   5
THIEF RVR FALL CLOUDY    25   9  50 NE12      30.06R WCI  14
CROOKSTON      CLOUDY    28  10  47 E12       30.05R WCI  18
FOSSTON        CLOUDY    27   7  43 E9        30.02R WCI  17
DETROIT LAKES  MIX PCPN  27  23  86 E12G17    29.97R WCI  16
MOORHEAD       CLOUDY    28  28 100 E13G22    29.97R WCI  18
PARK RAPIDS    CLOUDY    28   9  44 E14G24    29.99R WCI  17
$$
MNZ006-009>011-018-025>026-161200-
   North Central Minnesota

CITY           SKY/WX    TMP DP  RH WIND       PRES   REMARKS
BAUDETTE       MOCLDY    18   6  59 E7        30.13R WCI   9
FLAG ISLAND    PTCLDY    18   1  49 E7        30.15S WCI   8
INTL FALLS     CLEAR     15   4  61 NE6       30.14R WCI   6
WASKISH        PTCLDY    19   9  63 NE8       30.09S WCI   9
BIG FORK       MOCLDY    21   5  49 E6        30.09S WCI  14
LONGVILLE      CLOUDY    27   5  39 E5        30.03S WCI  21
GRAND RAPIDS   CLOUDY    25   5  42 E5        30.06R WCI  19
CRANE LAKE     PTCLDY     3   1  92 CALM      30.17R
ORR            PTCLDY    18   0  45 CALM      30.09S
COOK           MOCLDY    18   7  62 CALM      30.12R
$$
MNZ012-019>021-037-161200-
   Northeast Minnesota

CITY           SKY/WX    TMP DP  RH WIND       PRES   REMARKS
DULUTH         CLOUDY    24  13  62 E10       30.09S WCI  14
ELY            MOCLDY    10   7  85 CALM      30.13R
HIBBING        CLOUDY    22   7  52 E6        30.09R WCI  14
EVELETH        CLOUDY    21   9  58 NE3       30.11S
DULUTH HARBOR  CLOUDY    27  21  80 CALM      30.14S
TWO HARBORS    CLOUDY    23  10  58 NE6       30.12R WCI  16
SILVER BAY     CLOUDY    19  10  68 CALM      30.13R
GRAND MARAIS     N/A     23   1  38 VRB7      30.20R WCI  15
G MARAIS ARPRT PTCLDY    10  -6  48 NE6       30.13R WCI   1
$$
MNZ029>031-032-039>041-046>048-054>057-064-161200-
   West Central Minnesota

CITY           SKY/WX    TMP DP  RH WIND       PRES   REMARKS
FERGUS FALLS   MIX PCPN  27  21  80 E16G28    29.90S WCI  14
WHEATON        CLOUDY    32  27  80 E21G26    29.90S WCI  20
MORRIS         CLOUDY    30  23  74 E28G35    29.84F WCI  16
ALEXANDRIA     MOCLDY    27  22  81 E23G30    29.90F WCI  12
ELBOW LAKE     FAIR      28  23  83 E23G33    29.89R WCI  14
WADENA         LGT SNOW  23  21  93 E12G20    29.96S WCI  12
GLENWOOD       MOCLDY    27  25  93 E25G33    29.89S WCI  11
APPLETON       CLOUDY    32  23  69 E22G29    29.82F WCI  19
BENSON         CLOUDY    30  21  69 SE20G26   29.84F WCI  18
ORTONVILLE     CLOUDY    30  19  64 E23G29    29.82S WCI  17
MADISON        CLOUDY    36  21  55 E20G26    29.80S
WILLMAR        FAIR      32  21  64 E16G26    29.87S WCI  21
$$
MNZ033>034-036-042>043-049>051-058-059-161200-
   Central Minnesota

CITY           SKY/WX    TMP DP  RH WIND       PRES   REMARKS
ST CLOUD       CLOUDY    29  24  82 E9G20     29.96S WCI  20
SAUK CENTRE    CLOUDY    27  24  88 E16G24    29.92F WCI  15
PAYNESVILLE    CLOUDY    29  24  80 E17G23    29.91S WCI  17
AITKIN         CLOUDY    30  14  51 E8        30.02F WCI  23
PINE RIVER     CLOUDY    28  14  54 E13       30.04F WCI  18
BRAINERD       LGT SNOW  30  19  63 E8        30.02S WCI  22
STAPLES        LGT SNOW  23  21  93 E9        29.98S WCI  13
LONG PRAIRIE   CLOUDY    25  23  93 NE20G25   29.95S WCI  11
LITTLE FALLS   FLURRIES  27  23  86 E8        29.98S WCI  18
LITCHFIELD     CLOUDY    30  23  74 E17       29.90S WCI  18
BUFFALO        CLOUDY    30  24  78 E18       29.95F WCI  18
MAPLE LAKE     CLOUDY    30  26  86 E16G23    29.94F WCI  19
$$
MNZ037-044-045-052-053-161200-
   East Central Minnesota

CITY           SKY/WX    TMP DP  RH WIND       PRES   REMARKS
PRINCETON      CLOUDY    28  27  93 E13G21    29.99F WCI  18
MORA           LGT SNOW  27  23  86 E9        30.05F WCI  17
CAMBRIDGE      FLURRIES  30  21  69 E12G17    30.00S WCI  21
RUSH CITY      LGT SNOW  27  25  92 E9        30.05F WCI  18
MOOSE LAKE     CLOUDY    28  10  47 E3        30.05S
HINCKLEY       LGT SNOW  28  25  86 E8        30.07R WCI  20
CLOQUET        CLOUDY    25   9  50 E6        30.08S WCI  18
MCGREGOR       CLOUDY    30   9  40 E8        30.05S WCI  23
$$
MNZ071>073-080-081-089-090-097-098-161200-
   Southwest Minnesota

CITY           SKY/WX    TMP DP  RH WIND       PRES   REMARKS
MONTEVIDEO     CLOUDY    34  19  55 SE26G35   29.81F WCI  21
GRANITE FALLS  CLOUDY    33  20  59 E20G26    29.82R WCI  21
CANBY          CLOUDY    33  23  67 E18G28    29.77F WCI  22
MARSHALL       CLOUDY    34  19  55 E20G25    29.74F WCI  22
REDWOOD FALLS  CLOUDY    35  21  56 E12G22    29.81F WCI  27
OLIVIA         CLOUDY    34  21  60 E20G30    29.82F WCI  22
PIPESTONE      CLOUDY    37  28  70 SE17      29.64F
WINDOM         CLOUDY    36  27  69 SE15      29.76S
WORTHINGTON    CLOUDY    37  25  60 SE20G28   29.71F
JACKSON        CLOUDY    36  28  75 SE17G25   29.74F
TRACY          CLOUDY    34  24  68 E15       29.74F WCI  24
SLAYTON        CLOUDY    35  27  74 E17       29.70F WCI  24
$$
MNZ065>067-074>077-082>085-091>093-161200-
   South Central Minnesota

CITY           SKY/WX    TMP DP  RH WIND       PRES   REMARKS
MANKATO        CLOUDY    36  19  51 SE24      29.87F
NEW ULM        CLOUDY    34  21  60 E16G25    29.83F WCI  23
ST JAMES       CLOUDY    36  25  64 E15G22    29.81F
FAIRMONT       CLOUDY    36  25  64 SE22G30   29.80S
GLENCOE        CLOUDY    34  17  50 E20G25    29.90F WCI  23
FARIBAULT      CLOUDY    37  16  41 E18G26    29.93F
OWATONNA       CLOUDY    34  19  55 E22G28    29.91R WCI  22
WASECA         CLOUDY    36  23  60 E22G35    29.90F
ALBERT LEA     CLOUDY    36  23  60 SE22G28   29.86F
$$
MNZ078>079-086>088-094>096-161200-
   Southeast Minnesota

CITY           SKY/WX    TMP DP  RH WIND       PRES   REMARKS
ROCHESTER      CLOUDY    32  18  56 SE24G32   29.95F WCI  19
RED WING       CLOUDY    36  16  44 E17G28    29.99F
STANTON        CLOUDY    34  18  52 E12       29.95S WCI  26
DODGE CENTER   CLOUDY    36  19  51 SE29      29.91F
WINONA         CLOUDY    34  21  60 SE16G22   30.07F WCI  23
AUSTIN         CLOUDY    34  21  60 SE22G31   29.90F WCI  22
PRESTON        CLOUDY    32  19  58 SE18G28   30.00F WCI  21
$$
ABBREVIATIONS USED IN REMARKS
   TC - TEMPERATURES IN CELSIUS
  WCI - WIND CHILL INDEX
   HX - HEAT INDEX
  VSB - VISIBILITY
$$



USA.gov is the U.S. government's official web portal to all federal, state and local government web resources and services.